Location: Milton
(43.5183°N, 79.8775°W)
Time: 14:10:39
(UTC+00:00)

O/OREOS (USA 219) - Visible Passes

Search period start: 27 March 2023 00:00
Search period end: 06 April 2023 00:00
Orbit: 621 x 646 km, 72.0° (Epoch: 22 May)

Date Brightness Start Highest point End Pass type
(mag) Time Alt. Az. Time Alt. Az. Time Alt. Az.
27 Mar ? 10:10:43 10° S 10:14:49 33° ESE 10:18:56 10° NE visible
28 Mar ? 10:32:10 10° SSW 10:36:44 75° ESE 10:41:19 10° NNE visible
29 Mar ? 09:16:50 10° SE 09:19:50 17° E 09:22:50 10° ENE visible
30 Mar ? 09:37:23 10° S 09:41:36 37° ESE 09:45:49 10° NE visible
31 Mar ? 09:58:57 10° SSW 10:03:32 83° ESE 10:08:08 10° NNE visible
01 Apr ? 08:43:21 10° SE 08:46:36 19° E 08:49:50 10° NE visible
01 Apr ? 10:21:16 10° SW 10:25:39 45° WNW 10:30:04 10° NNE visible
02 Apr ? 09:05:03 16° S 09:08:23 41° ESE 09:12:41 10° NE visible
03 Apr ? 09:27:19 21° SSW 09:30:21 88° WNW 09:34:57 10° NNE visible
04 Apr ? 08:11:59 19° SE 08:13:22 21° ESE 08:16:49 10° NE visible
04 Apr ? 09:49:27 18° SW 09:52:29 41° WNW 09:56:49 10° N visible
05 Apr ? 08:34:02 38° SSE 08:35:11 46° ESE 08:39:33 10° NE visible
05 Apr ? 10:11:31 11° WSW 10:14:49 21° NW 10:18:17 10° N visible
